Location: Endfield
(51.6667°N, 0.0667°W)
Time: 07:06:32
(UTC+00:00)

Lacrosse 5 - Pass Details

Date: 19 May 2024
Orbit: 714 x 724 km, 57.0° (Epoch: 09 March)

Event Time Altitude Azimuth Distance (km) Brightness Sun altitude
Rises 21:11:54 0° 299° (WNW) 3,143 6.6 -9.8°
Reaches altitude 10° 21:14:28 10° 290° (WNW) 2,220 5.4 -10.0°
Maximum altitude 21:19:02 34° 227° (SW) 1,186 2.9 -10.5°
Enters shadow 21:23:08 12° 166° (SSE) 2,052 3.6 -10.8°
